Flag Weather past 2 weeks in Nukualofa, Tonga

Now
79 °F

Passing clouds.


Feels Like: 81 °F
Forecast: 72 / 80 °F
Wind: 10 mph from Southeast

Location: Fua'Amotu

Current Time: Oct 31, 2014 at 5:27:23 PM

Latest Report: Oct 31, 2014 at 5:00 PM


Visibility: N/A

Pressure: 30.01 "Hg

Humidity: 70%

Dew point: 68 °F

Location of NukualofaLocation

Historic Weather in Nukualofa — Graph

°F

Nukualofa temperature yesterday

Maximum temperature yesterday: 81 °F (at 2:00 PM)
Minimum temperature yesterday: 70 °F (at 12:00 AM)
Average temperature yesterday: 74 °F

Past Weeks' High & Low Weather Summary

 TemperatureHumidityPressure
High81 °F (Oct 23, 1:00 PM)100% (Oct 20, 11:00 AM)30.09 "Hg (Oct 20, 11:00 AM)
Low66 °F (Oct 26, 5:00 AM)50% (Oct 16, 5:00 PM)29.89 "Hg (Oct 25, 3:00 AM)
Average73 °F75%30.00 "Hg
* Reported Oct 16 4:00 PM — Oct 31 4:00 PM, Nukualofa, Weather by CustomWeather, © 2014

Note: Actual official high and low records may vary slightly from our data, if they occured in-between our weather recording intervals... More about our weather records

Advertising

Nukualofa weather history for previous 24 hours

 ConditionsComfort  
Time TempWeatherWind HumidityBarometerVisibility
4:00 PM
Oct 31
79 °FPassing clouds.9 mph70%30.01 "HgN/A
3:00 PM79 °FPassing clouds.12 mph65%30.04 "HgN/A
2:00 PM81 °FPassing clouds.8 mph62%30.04 "HgN/A
1:00 PM79 °FPassing clouds.6 mph70%30.07 "HgN/A
12:00 PM79 °FPartly sunny.10 mph70%30.07 "HgN/A
11:00 AM79 °FPartly sunny.10 mph70%30.09 "HgN/A
10:00 AM77 °FPartly sunny.14 mph74%30.09 "HgN/A
9:00 AM77 °FPassing clouds.6 mph74%30.09 "HgN/A
8:00 AM75 °FPassing clouds.6 mph78%30.07 "HgN/A
7:00 AM73 °FPassing clouds.3 mph78%30.07 "HgN/A
6:00 AM72 °FPassing clouds.3 mph83%30.04 "HgN/A
5:00 AM72 °FPassing clouds.3 mph83%30.04 "HgN/A
4:00 AM73 °FPassing clouds.7 mph78%30.04 "HgN/A
3:00 AM73 °FPassing clouds.7 mph78%30.01 "HgN/A
2:00 AM73 °FPassing clouds.9 mph78%30.04 "HgN/A
1:00 AM73 °FPassing clouds.No wind78%30.04 "HgN/A
12:00 AM73 °FPassing clouds.No wind78%30.07 "HgN/A
11:00 PM
Oct 30
73 °FPassing clouds.No wind78%30.07 "HgN/A
10:00 PM73 °FPassing clouds.2 mph78%30.07 "HgN/A
9:00 PM73 °FPassing clouds.No wind78%30.07 "HgN/A
8:00 PM73 °FPassing clouds.No wind78%30.04 "HgN/A
7:00 PM73 °FPassing clouds.2 mph78%30.01 "HgN/A
6:00 PM77 °FPassing clouds.9 mph69%29.98 "HgN/A
5:00 PM77 °FBroken clouds.7 mph69%29.98 "HgN/A
Weather by CustomWeather, © 2014

See weather overviewHow to use our weather pages